Location: Gniazdowice
(50.2124°N, 20.2673°E)
Time: 22:09:56
(UTC+00:00)

Cosmos 405 Rocket - Pass Details

Date: 23 May 2024
Orbit: 456 x 502 km, 81.3° (Epoch: 22 June)

Event Time Altitude Azimuth Distance (km) Brightness Sun altitude
Rises 01:34:25 0° 349° (NNW) 2,516 6.8 -8.9°
Reaches altitude 10° 01:36:31 10° 351° (N) 1,641 5.8 -8.7°
Maximum altitude 01:40:06 76° 77° (ENE) 496 2.7 -8.3°
Drops below altitude 10° 01:43:43 10° 164° (SSE) 1,654 5.0 -7.9°
Sets 01:45:49 0° 166° (SSE) 2,537 5.9 -7.7°
